Scottsdale, AZ

2:10 AM MST on February 12, 2016 (GMT -0700)
Scottsdale

Weather History for KSDL - September, 2013

Change the Weather History Date:

Wednesday, September 11, 2013

  Actual Average Record
Temperature  
Mean Temperature 82 °F -  
Max Temperature 91 °F 96 °F 105 °F (2004)
Min Temperature 72 °F 75 °F 68 °F (2010)
Cooling Degree Days 16    
Growing Degree Days 32 (Base 50)    
Moisture  
Dew Point 62 °F    
Average Humidity 55    
Maximum Humidity 84    
Minimum Humidity 30    
Precipitation  
Precipitation 0.00 in - - ()
Sea Level Pressure  
Sea Level Pressure 29.87 in    
Wind  
Wind Speed 2 mph (WNW)    
Max Wind Speed 7 mph    
Max Gust Speed -    
Visibility 10 miles    
Events      
Averages and records for this station are not official NWS values.
T = Trace of Precipitation, MM = Missing Value Source: NWS Daily Summary

Daily Weather History Graph

Daily Weather History Graph

Search for Another Location

Airport or City:

Trip Planner

Search our weather history database for the weather conditions in past years. The results will help you decide how hot, cold, wet, or windy it might be!

Date:

Astronomy

Sep. 11, 2013 Rise Set
Actual Time 6:08 AM MST 6:39 PM MST
Civil Twilight 5:43 AM MST 7:04 PM MST
Nautical Twilight 5:14 AM MST 7:33 PM MST
Astronomical Twilight 4:44 AM MST 8:03 PM MST
Moon 12:21 PM MST (9/11) 10:57 PM MST (9/11)
Length of Visible Light 13h 20m
Length of Day
12h 30m
Waxing Crescent, 40% of the Moon is Illuminated
Sep 11
Waxing Crescent
Sep 12
First Quarter
Sep 19
Full
Sep 26
Last Quarter
Oct 4
New

Hourly Weather History & Observations

Time (MST) Temp. Heat Index Dew Point Humidity Pressure Visibility Wind Dir Wind Speed Gust Speed Precip Events Conditions
12:53 AM 73.9 °F - 66.0 °F 76% 29.86 in 10.0 mi Calm Calm - N/A   Clear
1:53 AM 73.0 °F - 66.0 °F 79% 29.87 in 10.0 mi Calm Calm - N/A   Clear
2:53 AM 72.0 °F - 66.0 °F 81% 29.88 in 10.0 mi Calm Calm - N/A   Clear
3:53 AM 72.0 °F - 66.9 °F 84% 29.88 in 10.0 mi Calm Calm - N/A   Clear
4:53 AM 72.0 °F - 66.9 °F 84% 29.89 in 10.0 mi Calm Calm - N/A   Clear
5:53 AM 72.0 °F - 66.0 °F 81% 29.90 in 10.0 mi NE 3.5 mph - N/A   Clear
6:53 AM 73.0 °F - 64.9 °F 76% 29.92 in 10.0 mi Calm Calm - N/A   Clear
7:53 AM 75.9 °F - 64.9 °F 69% 29.93 in 10.0 mi Calm Calm - N/A   Clear
8:53 AM 78.1 °F - 64.0 °F 62% 29.94 in 10.0 mi SSW 3.5 mph - N/A   Clear
9:53 AM 80.1 °F 81.7 °F 64.0 °F 58% 29.94 in 10.0 mi Variable 3.5 mph - N/A   Clear
10:53 AM 82.0 °F 83.1 °F 63.0 °F 52% 29.94 in 10.0 mi Variable 3.5 mph - N/A   Clear
11:53 AM 84.9 °F 85.0 °F 61.0 °F 44% 29.92 in 10.0 mi Calm Calm - N/A   Clear
12:53 PM 87.1 °F 86.5 °F 59.0 °F 39% 29.90 in 10.0 mi Calm Calm - N/A   Clear
1:53 PM 88.0 °F 87.6 °F 60.1 °F 39% 29.87 in 10.0 mi SW 6.9 mph - N/A   Clear
2:53 PM 90.0 °F 88.6 °F 57.0 °F 33% 29.85 in 10.0 mi Variable 3.5 mph - N/A   Clear
3:53 PM 91.0 °F 90.0 °F 57.9 °F 33% 29.83 in 10.0 mi Variable 3.5 mph - N/A   Clear
4:53 PM 91.0 °F 89.2 °F 55.9 °F 30% 29.82 in 10.0 mi WNW 5.8 mph - N/A   Clear
5:53 PM 90.0 °F 88.8 °F 57.9 °F 34% 29.82 in 10.0 mi WSW 4.6 mph - N/A   Clear
6:53 PM 88.0 °F 87.1 °F 59.0 °F 37% 29.81 in 10.0 mi West 3.5 mph - N/A   Clear
7:53 PM 87.1 °F 86.7 °F 60.1 °F 40% 29.82 in 10.0 mi Calm Calm - N/A   Clear
8:53 PM 86.0 °F 85.7 °F 60.1 °F 41% 29.83 in 10.0 mi NNW 3.5 mph - N/A   Clear
9:53 PM 82.9 °F 84.0 °F 63.0 °F 51% 29.83 in 10.0 mi Calm Calm - N/A   Clear
10:53 PM 82.0 °F 83.0 °F 62.1 °F 51% 29.84 in 10.0 mi NNE 4.6 mph - N/A   Clear
11:53 PM 81.0 °F 81.7 °F 61.0 °F 50% 29.84 in 10.0 mi NNW 5.8 mph - N/A   Clear